Alliance, NE

12:51 AM MST on February 22, 2017 (GMT -0700)
Alliance Municipal

Weather History for KAIA - February, 2014

Change the Weather History Date:

Saturday, February 15, 2014

  Actual Average Record
Temperature  
Mean Temperature 36 °F 27 °F  
Max Temperature 43 °F 41 °F 64 °F (2017)
Min Temperature 28 °F 13 °F -31 °F (1903)
Degree Days  
Heating Degree Days 29 38  
Month to date heating degree days 805 590  
Since 1 July heating degree days 5025 4935  
Cooling Degree Days 0 0  
Month to date cooling degree days 0 0  
Year to date cooling degree days 0 0  
Moisture  
Dew Point 29 °F    
Average Humidity 71    
Maximum Humidity 89    
Minimum Humidity 53    
Precipitation  
Precipitation 0.01 in 0.01 in 0.20 in (2005)
Month to date precipitation 0.01 0.19  
Year to date precipitation 0.28 0.37  
Sea Level Pressure  
Sea Level Pressure 29.94 in    
Wind  
Wind Speed 11 mph (WNW)    
Max Wind Speed 20 mph    
Max Gust Speed 25 mph    
Visibility 10 miles    
Events      
T = Trace of Precipitation, MM = Missing Value Source: NWS Daily Summary

Daily Weather History Graph

Daily Weather History Graph

Search for Another Location

Airport or City:

Trip Planner

Search our weather history database for the weather conditions in past years. The results will help you decide how hot, cold, wet, or windy it might be!

Date:

Astronomy

Feb. 15, 2014 Rise Set
Actual Time 6:47 AM MST 5:24 PM MST
Civil Twilight 6:18 AM MST 5:52 PM MST
Nautical Twilight 5:45 AM MST 6:25 PM MST
Astronomical Twilight 5:13 AM MST 6:57 PM MST
Moon 6:28 PM MST (2/15) 6:45 AM MST (2/15)
Length of Visible Light 11h 34m
Length of Day
10h 37m
Waxing Gibbous, 99% of the Moon is Illuminated
Feb 15
Waxing Gibbous
Feb 22
Last Quarter
Mar 1
New
Mar 8
First Quarter
Mar 16
Full

Hourly Weather History & Observations

Time (MST) Temp. Windchill Dew Point Humidity Pressure Visibility Wind Dir Wind Speed Gust Speed Precip Events Conditions
12:53 AM 36.0 °F 28.5 °F 28.0 °F 73% 29.71 in 10.0 mi SW 10.4 mph - N/A   Mostly Cloudy
1:53 AM 37.0 °F 31.6 °F 30.0 °F 76% 29.71 in 10.0 mi Variable 6.9 mph - 0.00 in   Overcast
2:53 AM 34.0 °F 29.8 °F 30.9 °F 89% 29.73 in 10.0 mi North 4.6 mph - 0.01 in   Overcast
3:53 AM 36.0 °F 26.3 °F 32.0 °F 86% 29.75 in 10.0 mi North 16.1 mph - 0.00 in   Overcast
4:33 AM 36.0 °F 27.5 °F 32.0 °F 86% 29.77 in 10.0 mi North 12.7 mph - N/A   Overcast
4:53 AM 36.0 °F 25.6 °F 32.0 °F 86% 29.84 in 10.0 mi NNW 18.4 mph - N/A   Overcast
5:17 AM 35.1 °F 25.5 °F 32.0 °F 89% 29.81 in 10.0 mi NNW 15.0 mph - N/A   Overcast
5:53 AM 35.1 °F 25.5 °F 32.0 °F 89% 29.86 in 10.0 mi NNW 15.0 mph - 0.00 in   Overcast
6:53 AM 35.1 °F 27.4 °F 30.9 °F 85% 29.90 in 10.0 mi NNW 10.4 mph - N/A   Overcast
7:53 AM 35.1 °F 29.3 °F 30.9 °F 85% 29.91 in 10.0 mi WNW 6.9 mph - N/A   Overcast
8:53 AM 36.0 °F 27.1 °F 30.9 °F 82% 29.95 in 10.0 mi West 13.8 mph - N/A   Overcast
9:53 AM 37.0 °F 27.7 °F 30.9 °F 79% 29.96 in 10.0 mi West 16.1 mph - N/A   Clear
10:53 AM 42.1 °F 34.9 °F 30.9 °F 65% 30.00 in 10.0 mi NW 13.8 mph - N/A   Partly Cloudy
11:53 AM 43.0 °F 35.7 °F 28.0 °F 56% 30.00 in 10.0 mi NW 15.0 mph - N/A   Clear
12:53 PM 42.1 °F 34.9 °F 27.0 °F 55% 29.99 in 10.0 mi NW 13.8 mph - N/A   Overcast
1:53 PM 43.0 °F 35.1 °F 27.0 °F 53% 30.02 in 10.0 mi WNW 17.3 mph - N/A   Overcast
2:53 PM 43.0 °F 36.4 °F 27.0 °F 53% 30.03 in 10.0 mi WNW 12.7 mph - N/A   Clear
3:53 PM 39.9 °F 32.9 °F 30.0 °F 68% 30.05 in 10.0 mi WNW 11.5 mph - N/A   Clear
4:53 PM 39.0 °F 32.3 °F 30.0 °F 70% 30.05 in 10.0 mi WNW 10.4 mph - N/A   Clear
5:53 PM 33.1 °F 26.1 °F 28.9 °F 85% 30.08 in 10.0 mi West 8.1 mph - N/A   Clear
6:53 PM 32.0 °F 27.5 °F 28.0 °F 85% 30.08 in 10.0 mi WNW 4.6 mph - N/A   Clear
7:53 PM 30.9 °F 25.2 °F 27.0 °F 85% 30.08 in 10.0 mi WNW 5.8 mph - N/A   Clear
8:53 PM 30.0 °F 23.2 °F 27.0 °F 88% 30.08 in 10.0 mi WSW 6.9 mph - N/A   Clear
9:53 PM 30.9 °F 25.2 °F 27.0 °F 85% 30.05 in 10.0 mi South 5.8 mph - N/A   Mostly Cloudy
10:53 PM 30.0 °F 23.2 °F 27.0 °F 88% 30.03 in 10.0 mi South 6.9 mph - N/A   Mostly Cloudy
11:53 PM 28.0 °F 20.8 °F 25.0 °F 88% 30.01 in 10.0 mi South 6.9 mph - N/A   Clear